Theta_e
311 311 311 312 311 311 311 309 307 305 304 303 303 304 305 305 305 297 291 293 290 287 289 294 296 290 289 287 282 287 288 288 286 283 282 282 280 284 282 284 283 281 274 280 277 278 275 292 292 286 291 295 294 291
310 310 310 310 310 311 310 308 307 305 304 303 303 303 304 304 304 299 288 294 294 288 286 292 296 298 296 295 288 288 287 287 289 285 285 285 283 287 282 279 286 278 285 283 284 280 289 294 294 298 298 290 290 288
311 311 310 310 310 310 308 307 307 305 304 303 303 303 304 304 304 302 294 290 288 284 286 287 289 294 295 295 297 288 289 293 291 294 293 290 283 284 282 280 282 285 288 284 286 288 290 295 298 298 295 289 290 292
310 311 310 310 310 309 307 307 306 305 304 303 303 303 304 304 304 302 294 291 290 285 281 286 296 295 299 298 296 297 295 294 294 293 290 291 288 290 285 284 283 287 289 287 286 290 294 296 297 296 292 291 291 293
309 310 310 310 309 308 307 306 306 305 304 303 303 303 304 303 303 299 293 292 293 287 283 285 294 296 297 296 296 297 295 292 291 292 291 290 293 291 293 291 288 290 289 287 286 293 291 293 296 293 290 290 292 292
309 309 309 310 308 307 306 306 305 304 303 303 303 303 303 303 302 290 286 293 294 297 289 283 290 291 293 294 292 291 292 292 296 294 293 295 298 293 287 286 291 293 296 297 294 298 297 295 292 291 291 292 293 293
308 308 309 309 307 306 306 305 304 304 303 303 303 303 303 303 293 286 284 296 299 294 284 280 281 288 293 293 293 294 294 294 295 294 291 292 291 295 290 286 291 296 298 299 300 295 291 292 289 291 292 293 294 292
308 308 308 307 307 306 305 305 304 303 303 302 302 303 303 303 300 294 293 300 297 286 285 279 281 286 292 289 287 290 288 289 290 289 290 288 291 294 287 294 296 297 298 299 298 296 293 292 290 291 293 293 289 289
307 307 307 306 306 305 305 304 303 302 302 302 302 303 295 291 288 290 303 302 294 291 283 284 281 280 291 287 287 288 288 284 289 288 287 293 292 287 292 294 295 297 296 296 297 294 290 289 291 292 292 290 288 288
307 306 306 306 305 304 304 303 302 302 302 302 296 292 289 293 303 303 293 289 293 294 291 283 286 282 286 285 285 286 287 284 286 286 294 289 288 293 296 297 297 298 298 295 289 288 288 290 291 291 291 290 289 288
306 306 306 305 304 303 303 302 302 301 299 291 288 288 291 297 291 289 285 288 290 288 287 287 286 283 289 284 284 287 284 284 281 286 289 284 283 290 297 297 299 298 294 292 290 290 292 292 291 292 291 290 289 289
305 305 305 304 303 303 302 302 301 293 289 290 289 291 290 287 285 283 282 286 285 284 286 285 287 287 288 289 286 286 283 286 281 292 287 278 286 292 294 299 301 295 293 291 291 291 293 294 293 293 291 290 289 290
305 304 304 304 303 302 302 302 301 299 297 293 289 286 284 283 275 280 279 282 280 287 291 290 288 292 290 290 286 285 282 281 288 286 285 288 293 294 294 299 299 294 293 293 293 292 294 294 295 294 290 290 291 291
304 304 303 303 303 302 302 302 301 297 291 287 285 276 280 279 281 281 282 284 289 291 290 289 288 288 291 287 286 284 286 286 284 281 282 289 291 293 295 298 297 294 292 294 294 292 293 294 294 293 292 291 292 291
303 303 303 302 302 302 302 302 301 294 289 285 284 280 282 284 285 287 288 288 291 292 289 288 289 293 289 284 285 284 282 283 282 281 288 292 293 293 294 296 297 295 292 294 294 292 293 294 294 292 292 292 292 293
303 302 299 302 302 302 302 301 295 292 289 286 284 282 283 282 282 284 286 285 287 288 289 288 286 284 285 285 282 282 282 275 280 287 290 294 295 293 293 296 298 297 293 295 294 292 293 295 295 293 293 292 293 293
300 292 301 302 302 302 301 293 291 288 286 284 282 284 282 282 281 282 284 286 289 288 284 285 284 283 286 282 281 283 280 283 287 289 291 292 293 294 295 297 299 298 297 295 295 293 293 296 296 294 291 292 293 294
292 293 300 302 301 298 296 295 291 287 283 284 280 281 282 283 282 283 284 285 285 284 286 284 289 283 281 281 282 285 286 288 289 288 290 294 295 295 296 295 298 299 298 296 296 294 293 295 294 294 293 293 293 294
296 298 302 302 297 292 288 288 288 281 283 283 283 283 283 283 284 285 286 286 286 286 287 286 284 282 281 284 285 286 287 287 285 287 289 290 292 294 296 294 294 298 300 297 295 294 293 294 295 296 295 295 293 294
300 301 300 299 297 290 288 289 290 284 281 282 282 282 282 282 285 284 285 285 284 284 283 284 283 284 284 286 290 290 290 288 286 286 287 289 289 291 291 290 291 294 299 297 295 293 294 293 294 296 297 295 294 293
297 297 298 296 292 289 288 284 286 287 283 281 283 282 282 282 282 282 283 285 283 283 282 284 285 289 291 291 290 289 287 287 287 288 288 287 289 288 290 291 291 297 296 297 295 295 293 292 293 294 295 296 296 296
293 297 292 294 289 289 285 284 282 283 281 281 281 282 280 279 280 281 284 282 282 284 285 287 288 289 289 289 290 291 292 292 290 289 290 289 288 289 289 290 291 295 296 297 296 296 294 294 294 294 293 294 294 296
297 294 289 288 283 282 281 285 281 281 278 280 281 280 279 280 282 284 281 283 284 287 288 288 290 291 290 292 292 291 291 290 289 289 290 289 290 290 290 292 294 294 296 294 295 295 294 292 293 294 294 294 293 294
296 288 285 284 283 280 284 282 281 281 280 279 279 279 280 280 283 281 280 281 285 286 286 287 288 288 289 289 288 288 289 290 290 290 291 290 289 290 291 292 293 293 297 297 295 295 294 295 292 294 294 294 294 293
282 277 283 278 284 281 281 281 281 280 280 280 279 280 281 282 280 280 280 282 284 284 287 290 289 289 289 289 290 291 294 293 291 289 292 292 291 290 291 291 292 297 298 298 297 295 294 295 294 294 295 294 293 293
274 279 279 280 280 280 281 280 281 281 281 281 281 283 283 281 280 280 282 285 287 287 288 288 287 287 286 288 289 289 290 292 293 292 295 295 293 292 291 292 293 297 301 301 302 298 296 296 295 295 295 295 289 295
277 279 281 285 283 284 282 284 285 284 282 282 282 283 283 281 281 284 289 291 292 296 294 292 290 288 288 289 289 291 292 293 294 294 296 296 297 297 297 296 296 299 302 303 302 302 299 299 297 298 297 296 296 296
282 282 280 283 283 285 282 283 283 283 284 287 286 283 282 282 281 287 289 290 291 291 291 291 291 290 291 291 292 292 292 293 295 296 296 297 298 300 299 300 301 296 304 305 304 304 303 302 299 299 299 297 296 297
283 285 285 282 284 284 285 284 284 287 290 289 286 284 284 288 290 289 292 293 295 294 293 293 294 296 296 296 296 296 292 292 291 292 294 294 294 296 302 305 305 304 302 299 289 297 302 301 301 302 300 299 299 298
283 286 283 284 283 283 286 289 289 291 292 292 291 289 289 289 292 295 294 293 293 292 294 294 295 294 293 293 293 293 294 295 295 294 294 294 296 301 304 305 305 305 301 299 298 296 289 297 295 299 299 298 297 297
288 287 285 285 284 287 288 291 290 290 289 288 290 287 285 287 290 294 297 298 300 302 298 296 296 294 293 293 293 293 296 297 297 297 299 299 302 303 304 304 305 305 307 301 301 299 298 298 298 299 299 298 299 298
285 284 284 283 284 289 291 289 287 286 287 287 287 287 287 286 288 293 298 298 298 298 296 301 302 302 302 301 300 300 292 302 303 303 304 304 305 306 308 307 306 305 305 303 300 300 299 299 299 299 297 295 295 295
287 286 286 285 286 287 290 291 290 291 292 290 290 292 291 289 287 293 299 299 297 297 297 299 302 304 303 301 301 298 295 297 291 286 288 288 290 296 304 303 302 304 304 301 300 299 297 296 293 292 290 289 288 287
Wind_Speed
11 11 10 10 10 11 10 11 10 8 4 1 3 6 8 9 11 5 3 3 3 3 7 5 5 5 2 3 3 5 6 3 3 5 1 3 1 3 3 5 6 3 0 2 3 4 9 3 17 2 7 15 11 14
12 12 11 11 10 11 12 12 11 9 6 4 3 4 5 7 9 5 2 2 1 3 9 3 9 14 10 13 5 3 4 1 4 2 1 2 3 3 3 5 2 4 6 3 6 8 12 21 14 11 10 7 11 12
15 14 13 11 11 12 14 12 11 10 8 5 4 5 5 7 7 5 3 2 2 3 7 4 5 5 4 11 13 5 4 6 3 6 3 2 5 4 3 7 4 5 2 4 3 6 11 13 13 14 5 8 14 16
14 15 14 11 11 13 14 12 11 10 8 6 4 6 6 7 7 7 2 2 2 1 2 9 3 8 4 4 12 15 5 1 1 2 2 3 3 5 4 6 4 6 4 7 9 14 12 14 12 10 8 11 15 14
15 15 13 13 14 16 14 13 11 10 8 6 5 5 7 8 10 6 3 4 3 4 3 8 14 5 4 5 12 14 14 8 3 3 3 4 2 2 2 5 4 4 6 3 7 13 18 15 13 9 10 15 15 18
14 13 13 14 17 16 14 13 11 10 8 7 6 6 6 7 8 3 3 2 3 2 2 5 6 7 9 5 7 7 7 4 4 4 4 3 3 3 3 5 6 6 3 7 10 7 12 16 8 7 12 17 17 18
13 13 13 17 17 16 14 12 12 10 8 6 5 6 7 7 2 2 4 1 7 2 2 6 7 6 7 5 4 2 2 4 4 3 4 3 3 6 3 7 5 11 12 11 13 5 8 4 13 13 14 17 16 15
14 14 16 16 15 14 13 12 11 9 7 5 6 8 9 10 6 6 4 11 7 1 2 2 6 7 4 4 4 1 2 3 2 1 0 2 1 2 4 6 16 13 11 13 9 6 8 11 11 13 14 14 16 15
16 18 17 16 14 13 12 11 9 6 5 6 8 11 3 2 2 4 2 12 2 2 3 3 2 5 5 3 3 4 2 2 2 1 2 2 1 2 7 12 12 12 9 14 13 11 9 10 13 16 15 15 14 15
19 18 16 15 15 14 11 9 6 5 6 8 1 1 2 4 7 5 3 2 0 2 1 4 1 5 1 2 4 3 2 2 3 3 3 2 3 5 9 9 9 13 12 7 8 11 11 12 13 15 14 14 13 14
16 16 16 15 15 14 11 9 5 2 3 2 2 3 3 8 3 2 1 2 2 3 4 5 6 4 2 3 4 1 3 2 2 3 1 1 3 4 7 9 7 7 6 8 6 8 10 9 12 15 13 14 13 14
17 16 15 15 14 13 11 9 5 3 3 4 3 1 3 3 2 1 3 1 4 5 2 3 4 6 5 2 1 1 1 1 5 1 1 2 4 6 8 7 8 4 7 8 7 9 10 9 10 12 11 12 13 13
16 17 16 15 14 13 11 9 7 5 4 2 2 1 3 1 1 5 5 4 2 2 1 2 4 3 3 1 1 2 1 5 2 1 1 3 8 9 8 9 7 5 7 8 9 8 9 10 12 8 11 10 13 12
16 16 16 14 13 12 11 9 6 4 3 2 4 4 5 4 5 5 5 3 4 3 1 2 2 3 2 2 2 2 5 1 2 5 3 5 10 9 9 8 6 6 7 9 9 7 9 9 12 6 9 10 11 11
15 16 15 13 13 12 11 9 6 2 2 2 3 5 6 5 3 3 5 2 3 1 1 1 2 1 4 3 4 1 2 3 1 3 4 4 6 7 7 8 7 6 6 6 6 6 8 8 10 5 9 9 10 10
16 12 5 12 13 12 12 8 2 1 0 2 4 3 3 1 2 2 2 2 2 1 1 2 2 3 5 4 2 6 5 5 5 4 5 4 5 7 6 7 8 6 4 5 5 5 6 7 11 4 8 8 10 11
11 2 13 15 14 13 13 4 2 3 3 4 4 3 3 3 5 4 4 3 1 2 2 2 3 5 4 4 3 3 5 4 4 4 3 4 6 7 7 7 8 7 3 4 5 4 5 6 8 8 8 9 9 10
2 1 8 16 12 7 1 1 2 4 7 6 4 4 3 4 3 3 4 3 3 3 3 5 2 3 5 4 3 4 2 2 3 4 4 5 6 7 6 7 7 7 3 4 5 3 3 5 6 5 7 7 7 9
3 3 17 19 7 4 3 3 2 4 6 4 4 3 3 4 4 4 4 4 5 4 3 3 5 5 5 4 3 2 3 3 4 4 4 5 6 7 7 8 8 5 3 3 2 3 2 3 3 5 4 4 4 6
14 14 18 10 6 3 4 3 2 3 4 5 2 3 4 4 4 4 6 4 4 4 4 5 5 5 4 5 5 5 3 5 4 4 5 6 4 6 7 5 6 6 2 2 0 3 2 3 2 3 4 5 4 5
8 4 7 4 2 2 2 2 3 3 4 3 2 3 4 2 3 4 5 4 4 5 5 5 6 8 10 10 6 4 6 5 5 5 7 5 5 3 5 6 5 3 1 1 3 3 3 2 3 3 2 4 5 4
3 8 3 2 2 2 3 3 3 3 2 4 3 3 4 4 4 5 3 4 5 6 6 6 9 10 9 11 11 12 12 10 7 5 6 4 4 4 4 3 3 3 4 2 2 2 1 2 3 3 1 1 4 4
7 3 2 2 2 3 6 3 2 3 3 4 1 2 3 3 5 2 3 4 5 5 6 7 10 11 11 13 8 8 9 9 7 5 5 5 5 5 4 5 3 1 5 1 3 3 3 1 3 3 3 1 0 2
4 3 3 4 5 3 2 3 3 3 3 2 2 4 4 4 2 1 4 5 5 4 4 6 4 6 3 4 4 5 4 5 6 5 5 3 3 5 5 5 3 5 5 3 4 4 3 3 2 2 3 3 3 1
3 4 3 5 4 4 5 4 4 3 4 4 4 4 4 2 3 4 5 5 3 4 4 4 2 2 3 2 2 3 4 3 1 3 3 5 3 2 3 4 4 6 3 4 3 4 4 4 3 3 2 0 1 3
3 6 9 7 4 5 5 4 5 6 3 3 5 4 2 3 4 6 4 2 2 3 4 4 4 3 1 2 1 2 3 2 3 2 3 2 1 2 3 3 3 4 2 4 4 5 5 5 5 6 5 5 3 4
5 6 5 5 4 3 3 3 2 2 5 6 4 4 3 4 6 4 1 1 2 2 2 2 2 3 3 4 4 4 3 3 4 4 4 4 4 4 4 3 5 5 3 6 7 7 7 6 6 6 5 4 6 5
7 3 6 5 4 3 3 4 5 5 5 4 2 5 4 5 5 2 2 1 1 3 4 4 4 5 5 6 5 4 3 4 4 5 4 5 5 5 5 4 5 9 5 2 6 5 5 6 6 5 4 4 5 5
5 3 3 6 4 4 5 5 5 5 4 4 3 3 4 3 1 2 5 9 8 7 7 7 7 7 7 6 6 6 4 4 3 5 6 4 2 4 2 3 2 2 3 1 5 7 10 7 6 5 5 3 3 4
5 6 4 4 5 7 6 6 3 2 1 2 1 2 2 2 6 8 8 9 8 9 8 6 5 6 6 6 6 6 5 6 7 5 5 5 5 3 4 4 2 2 3 5 5 5 6 5 4 3 4 4 3 3
1 1 3 4 4 3 3 4 3 2 2 2 2 3 2 3 4 4 5 7 6 4 4 4 4 5 6 6 6 5 5 7 11 12 9 3 1 4 5 3 2 2 2 5 5 2 5 4 4 6 5 4 3 4
3 4 2 3 4 2 4 4 3 2 1 0 0 2 2 2 3 7 9 9 8 8 7 5 4 2 5 6 5 2 1 4 4 5 7 5 5 5 5 4 3 0 4 5 6 5 3 4 5 5 7 8 7 7
3 3 3 3 3 4 2 1 2 3 2 2 3 4 4 3 4 3 5 6 5 6 7 6 5 5 5 6 5 4 4 3 4 4 5 5 2 2 3 3 4 5 8 7 6 7 7 10 8 10 8 8 9 9
Wind_Direction
232 237 242 248 245 248 222 199 198 215 223 275 340 351 2 12 12 47 278 344 93 256 273 234 206 184 187 133 160 290 348 318 356 34 37 293 263 290 287 246 275 250 184 296 334 279 284 352 349 341 280 297 308 301
223 234 238 242 249 250 213 195 194 206 215 235 285 329 347 358 9 65 334 299 96 189 251 249 229 237 214 228 142 225 218 232 226 100 266 254 274 265 203 284 313 276 196 205 213 237 279 302 286 289 297 278 299 292
224 226 229 228 238 247 198 191 190 198 210 225 271 302 335 347 352 358 287 270 30 343 296 335 255 265 201 216 192 167 245 209 221 197 213 247 259 134 239 236 236 284 248 239 302 265 268 293 299 295 269 268 287 287
223 227 219 220 230 202 189 189 196 200 210 222 258 292 320 330 332 324 258 206 115 156 296 281 303 284 210 162 190 211 237 5 119 123 222 240 230 186 235 250 228 249 299 247 256 280 309 288 289 291 277 281 285 286
218 222 221 216 202 189 183 188 185 203 212 223 254 286 312 332 326 315 213 226 183 115 263 285 312 279 312 201 210 220 230 218 174 186 205 231 236 255 244 270 248 192 230 266 283 304 288 290 294 294 297 301 310 309
215 221 221 211 187 181 178 184 186 198 211 232 260 290 314 327 345 11 6 341 194 205 274 306 295 304 302 280 252 199 196 167 196 176 199 227 208 188 248 260 236 244 236 238 284 284 288 282 297 293 304 315 309 309
211 216 216 186 175 173 176 182 191 199 217 238 269 292 299 302 102 193 206 178 182 72 48 309 304 289 307 318 317 342 145 197 165 194 205 197 202 199 233 269 334 326 316 311 309 310 295 304 307 309 309 310 311 316
203 199 177 170 169 170 174 184 189 202 223 249 277 288 291 285 277 275 259 239 187 123 73 275 276 322 345 305 309 8 323 11 12 235 94 197 271 229 275 328 323 308 301 290 300 278 272 303 302 314 316 321 322 318
176 162 157 158 162 170 173 180 184 210 241 271 287 301 19 81 193 241 127 112 137 152 200 205 246 275 347 292 275 327 52 350 283 226 268 139 354 296 271 294 294 296 286 296 304 306 307 303 313 322 320 330 321 319
157 154 156 162 167 169 168 171 183 230 269 291 350 122 268 222 275 118 6 70 218 232 230 242 250 267 66 338 296 348 20 325 319 251 48 17 274 267 273 276 278 288 294 304 310 315 314 312 323 325 327 328 318 316
156 152 157 164 167 165 164 168 181 266 56 70 142 227 264 318 64 46 248 214 155 230 201 231 200 233 255 194 243 166 296 299 323 264 190 241 276 264 312 314 296 283 301 296 277 280 289 297 319 322 335 328 325 324
152 154 159 168 166 163 164 165 152 85 152 177 176 311 337 35 51 212 225 219 206 239 213 191 248 202 275 171 147 335 266 309 260 333 245 278 257 297 322 317 296 278 298 301 298 293 300 300 319 321 338 330 331 327
160 160 165 160 161 161 163 162 151 148 86 68 66 7 70 251 55 207 205 233 237 242 99 311 305 246 324 90 135 80 275 237 332 283 42 305 312 309 316 305 298 274 302 304 304 310 322 334 328 334 345 337 330 335
168 160 152 156 159 163 163 162 152 101 90 142 157 266 187 206 231 199 200 194 240 175 215 182 251 244 239 280 171 213 235 55 289 16 317 262 275 286 303 301 289 289 305 301 308 323 329 336 330 12 349 339 334 342
154 147 150 159 162 163 161 158 140 87 121 198 169 231 220 225 251 233 225 276 302 292 93 344 289 311 293 268 204 319 266 74 176 237 246 273 294 301 301 310 294 276 287 298 317 327 323 333 335 4 351 345 337 340
144 134 160 164 166 165 158 128 82 91 42 224 238 260 253 110 272 358 2 291 266 303 64 51 308 274 226 245 219 226 126 200 240 228 247 290 291 294 302 303 291 275 266 304 314 330 323 334 336 352 353 353 338 343
132 173 169 164 166 154 135 105 109 181 227 231 246 226 229 251 223 220 195 236 202 87 204 121 255 234 298 257 242 161 189 203 224 273 282 272 270 288 302 307 309 281 259 290 299 347 338 347 349 360 360 358 344 347
119 218 183 168 145 111 84 99 183 218 237 235 234 234 194 209 206 249 231 223 145 202 157 210 180 243 221 220 269 260 247 255 252 257 275 294 294 292 293 296 304 300 258 250 284 330 340 352 355 356 355 357 351 351
210 166 149 145 134 115 133 198 168 252 236 224 236 235 207 239 228 227 223 236 196 187 163 160 215 217 223 235 200 256 290 277 280 287 279 289 303 294 301 314 314 329 319 224 299 303 339 355 336 335 340 354 19 354
75 128 126 115 99 141 189 194 175 249 259 238 236 226 199 212 231 219 239 228 174 177 200 202 201 220 209 236 207 241 209 235 229 298 294 296 289 309 297 294 300 306 300 185 129 291 356 352 332 333 341 358 30 16
92 85 91 81 44 56 237 224 236 228 250 247 261 166 241 252 229 215 233 183 167 204 213 211 217 232 235 250 240 209 249 223 227 214 247 274 281 276 291 294 303 313 304 230 217 285 353 324 309 308 340 3 11 15
117 139 98 129 125 208 251 225 213 270 264 251 301 208 236 238 233 232 195 164 209 214 198 213 227 232 239 240 247 246 249 259 249 230 238 229 272 291 291 276 320 330 300 230 197 182 267 313 312 333 51 96 10 12
120 96 85 147 157 216 259 133 193 244 240 258 318 258 248 251 238 112 237 213 227 210 204 212 231 228 230 243 234 237 224 223 245 243 248 227 228 242 259 271 259 274 288 182 182 164 173 247 314 325 356 53 86 1
30 133 180 194 204 242 231 222 216 244 241 242 239 259 252 227 254 215 243 239 227 196 193 228 222 255 256 241 225 242 233 201 230 248 228 204 236 257 227 250 274 236 239 161 163 143 169 190 220 307 337 4 32 43
111 243 199 216 212 216 224 233 206 214 245 208 221 247 258 179 232 236 232 267 209 207 171 149 129 131 133 85 21 355 360 62 347 258 283 193 215 280 278 256 248 257 171 139 171 164 172 183 202 216 224 124 18 28
217 215 191 197 211 206 208 226 207 206 209 227 236 247 250 201 231 242 229 244 195 159 153 155 157 142 182 169 195 284 288 322 3 314 270 112 182 220 258 276 306 304 197 133 160 183 167 188 208 213 215 199 178 145
239 235 211 222 218 210 232 268 252 228 229 224 222 204 211 235 239 245 215 208 110 113 127 147 156 186 235 265 243 238 243 244 233 245 273 280 250 227 226 225 261 247 234 159 170 198 166 184 204 217 206 148 181 172
232 257 219 189 198 216 247 227 211 223 231 226 224 205 220 220 246 231 198 146 132 267 267 256 223 219 234 243 239 249 260 257 273 283 284 275 251 243 236 239 243 251 257 196 169 182 164 178 184 191 184 199 197 168
228 219 211 240 220 208 230 222 219 215 205 179 224 219 246 256 333 320 301 297 284 262 251 242 236 227 236 241 242 238 203 207 204 205 212 216 238 278 204 180 146 200 237 277 180 173 183 169 162 175 184 175 205 158
227 193 220 230 218 225 214 204 218 209 255 218 189 283 286 268 268 273 268 268 255 242 239 226 211 195 207 210 226 234 216 211 211 215 189 185 210 184 164 122 81 20 93 98 117 109 100 95 99 100 117 113 114 134
266 245 232 226 253 237 226 243 287 255 224 228 239 240 252 293 304 274 319 339 349 37 145 165 165 186 189 195 198 205 208 208 213 219 230 277 223 161 141 148 102 23 81 120 100 78 126 108 121 133 147 144 111 137
204 210 225 261 274 248 247 174 184 192 196 326 29 210 219 226 347 348 355 354 7 15 17 41 66 138 206 220 221 281 218 126 140 179 183 175 187 180 153 137 112 256 141 126 125 116 102 124 125 119 112 98 86 75
210 168 208 271 287 296 238 205 190 140 124 87 38 16 30 28 15 322 353 0 2 4 356 337 334 355 34 78 106 97 72 70 58 43 52 60 81 182 176 143 81 96 115 111 98 105 107 110 100 93 81 88 81 70